Precipitable_Water
0.55 0.93 0.99 0.94 0.84 0.86 0.91 0.87 0.84 0.84 0.95 0.97 0.94 0.93 0.86 0.97 1.02 1.06 1.09 1.07 1.07 1.09 1.05 0.97 0.98 0.95 0.92 0.89 0.91 0.94 0.93 0.94 0.98 0.93 0.93 1.00 1.07 1.05 1.04 1.07 1.08 1.09 1.14
0.36 0.64 1.01 0.99 0.89 0.84 0.91 0.88 0.85 0.87 0.88 0.91 0.92 0.94 0.95 0.96 1.00 1.06 1.06 1.07 1.08 1.09 1.09 1.04 0.96 0.96 0.93 0.93 0.91 0.89 0.88 0.92 1.01 0.87 0.88 0.76 0.86 0.95 1.04 1.08 1.11 1.15 1.23
0.29 0.43 0.69 0.98 0.97 0.91 0.95 0.92 0.89 0.89 0.91 0.92 0.96 0.96 0.99 1.02 0.97 0.96 0.95 0.98 1.02 1.06 1.05 1.04 1.04 1.01 1.00 0.93 0.93 0.93 0.89 0.83 0.93 1.00 0.86 0.76 0.70 0.86 1.03 1.08 1.17 1.23 1.32
0.28 0.32 0.43 0.68 0.86 0.91 0.95 1.02 0.98 0.95 0.92 0.98 0.94 0.85 0.78 0.73 0.79 0.84 0.92 0.92 1.00 1.02 1.07 1.09 1.09 1.07 1.04 0.97 0.97 1.01 0.95 0.93 0.84 0.97 1.00 0.98 0.97 0.84 0.80 1.10 1.15 1.30 1.36
0.22 0.27 0.34 0.47 0.71 0.83 0.91 0.95 1.08 1.06 1.01 0.94 0.92 0.90 0.89 0.87 0.87 0.94 0.92 0.95 0.99 1.02 1.03 1.07 1.10 1.08 1.08 1.04 0.99 1.01 1.01 1.01 0.93 0.92 0.97 0.98 0.99 1.00 0.91 0.79 0.94 1.25 1.36
0.25 0.26 0.30 0.37 0.43 0.59 0.63 0.66 0.73 0.90 1.13 1.05 0.96 0.91 0.83 0.80 0.80 0.84 0.84 0.88 0.95 1.00 1.02 1.03 1.05 1.08 1.08 1.06 1.07 1.04 1.06 1.04 1.04 1.01 0.99 0.98 0.92 0.91 0.94 0.90 0.95 1.04 1.24
0.30 0.26 0.26 0.29 0.35 0.38 0.44 0.53 0.51 0.47 0.63 0.94 1.03 0.94 0.88 0.85 0.75 0.77 0.83 0.84 0.86 0.91 0.90 0.93 0.96 1.00 1.04 1.07 1.11 1.09 1.07 1.08 1.02 1.04 1.00 1.05 1.02 1.08 1.07 1.02 0.97 1.02 1.22
0.38 0.35 0.32 0.29 0.31 0.33 0.35 0.38 0.47 0.52 0.51 0.47 0.59 0.98 0.96 0.94 0.86 0.82 0.88 0.93 0.92 0.91 0.95 0.96 0.96 0.97 1.05 1.09 1.09 1.09 1.07 1.08 1.10 1.04 1.07 1.08 1.08 1.11 1.11 1.08 1.05 0.97 1.10
0.43 0.42 0.40 0.39 0.35 0.34 0.35 0.38 0.36 0.42 0.56 0.55 0.54 0.51 0.67 0.96 0.86 0.87 0.93 0.95 1.04 1.04 1.00 1.01 0.97 0.98 1.02 1.07 1.09 1.06 1.05 1.10 1.08 1.09 1.10 1.08 1.13 1.18 1.22 1.24 1.23 1.13 0.94
0.46 0.47 0.48 0.46 0.47 0.45 0.41 0.42 0.45 0.48 0.51 0.52 0.51 0.50 0.50 0.70 0.96 0.94 0.97 1.01 0.97 1.08 1.07 1.03 1.01 0.99 1.01 1.03 1.05 1.05 1.09 1.08 1.10 1.10 1.07 1.09 1.13 1.17 1.23 1.27 1.30 1.26 1.13
0.44 0.50 0.52 0.54 0.59 0.58 0.57 0.51 0.53 0.53 0.52 0.56 0.55 0.51 0.51 0.58 0.96 1.04 1.02 1.00 0.99 0.99 1.06 1.06 0.99 0.97 0.97 1.00 1.01 1.00 1.05 1.06 1.08 1.08 1.03 1.06 1.14 1.14 1.19 1.26 1.26 1.20 1.17
0.48 0.48 0.52 0.55 0.57 0.60 0.64 0.64 0.61 0.70 0.74 0.76 0.73 0.68 0.68 0.69 0.68 0.88 0.99 0.98 0.92 0.96 0.96 1.02 1.00 0.97 0.95 0.98 0.97 0.97 1.03 1.05 1.04 0.99 1.02 1.02 1.13 1.13 1.18 1.16 1.16 1.16 1.18
0.55 0.53 0.49 0.49 0.51 0.56 0.62 0.67 0.73 0.79 0.88 0.91 0.85 0.82 0.77 0.73 0.70 0.79 0.90 0.94 0.95 0.95 0.99 1.04 1.04 1.00 0.99 1.00 1.01 1.03 1.05 1.08 1.06 1.03 1.00 1.01 1.08 1.06 1.10 1.10 1.13 1.11 1.20
0.53 0.53 0.54 0.53 0.52 0.60 0.63 0.66 0.68 0.72 0.75 0.82 0.81 0.77 0.75 0.78 0.78 0.78 0.78 0.94 0.98 0.96 0.98 1.03 1.04 1.08 1.09 1.11 1.08 1.09 1.08 1.10 1.08 1.09 1.04 1.04 1.05 1.03 1.06 1.05 1.08 1.10 1.07
0.51 0.51 0.54 0.56 0.59 0.55 0.58 0.61 0.62 0.64 0.65 0.67 0.73 0.73 0.75 0.82 0.82 0.82 0.89 0.92 1.00 1.04 1.04 1.05 1.12 1.18 1.19 1.17 1.11 1.12 1.10 1.05 1.04 1.07 1.05 1.06 1.09 1.14 1.11 1.04 1.02 1.01 1.02
0.48 0.50 0.52 0.55 0.57 0.61 0.63 0.61 0.58 0.57 0.60 0.61 0.61 0.71 0.74 0.80 0.81 0.86 0.92 1.01 1.03 1.09 1.13 1.13 1.16 1.18 1.23 1.26 1.21 1.19 1.17 1.06 0.98 0.91 0.96 1.01 1.07 1.05 1.04 1.05 1.08 1.11 1.03
0.44 0.43 0.48 0.50 0.52 0.57 0.63 0.60 0.59 0.60 0.58 0.58 0.57 0.62 0.67 0.70 0.75 0.84 0.97 1.04 1.07 1.13 1.13 1.18 1.24 1.25 1.31 1.31 1.32 1.32 1.19 1.03 0.94 0.92 0.94 0.93 1.00 0.98 0.97 1.00 1.07 1.07 1.12
0.44 0.45 0.47 0.50 0.50 0.52 0.55 0.57 0.62 0.58 0.53 0.53 0.54 0.56 0.64 0.69 0.74 0.77 0.80 0.96 1.17 1.19 1.22 1.24 1.29 1.31 1.39 1.44 1.35 1.35 1.14 1.03 0.99 0.97 0.97 0.98 0.93 0.96 0.99 1.01 1.00 1.02 1.07
0.59 0.55 0.51 0.56 0.53 0.47 0.48 0.54 0.60 0.57 0.50 0.46 0.47 0.53 0.65 0.73 0.77 0.75 0.76 0.85 1.01 1.22 1.24 1.31 1.39 1.30 1.36 1.43 1.42 1.23 1.10 1.04 0.98 1.00 1.00 0.99 0.98 1.01 1.03 1.00 1.00 1.02 1.06
0.54 0.55 0.58 0.57 0.54 0.49 0.44 0.47 0.48 0.48 0.45 0.46 0.46 0.49 0.52 0.69 0.80 0.82 0.81 0.85 0.87 1.02 1.27 1.26 1.57 1.52 1.44 1.42 1.32 1.19 1.10 1.00 0.97 0.95 0.98 1.03 1.02 1.01 1.04 1.02 1.00 0.94 0.98
0.51 0.53 0.54 0.53 0.52 0.50 0.48 0.45 0.44 0.44 0.47 0.48 0.48 0.47 0.50 0.54 0.61 0.79 0.89 0.86 0.85 0.85 0.97 1.23 1.26 1.30 1.37 1.37 1.23 1.20 1.11 1.05 0.98 0.90 0.91 0.98 1.01 1.03 1.06 1.05 0.98 0.92 0.91
0.43 0.46 0.46 0.47 0.49 0.48 0.46 0.45 0.45 0.44 0.48 0.50 0.50 0.48 0.48 0.50 0.59 0.65 0.78 0.86 0.82 0.80 0.82 0.92 1.14 1.19 1.23 1.24 1.19 1.21 1.17 1.12 1.00 0.92 0.96 0.98 0.99 1.01 1.00 0.94 0.89 0.88 0.85
0.39 0.40 0.40 0.39 0.39 0.40 0.42 0.43 0.44 0.48 0.49 0.46 0.46 0.49 0.47 0.48 0.54 0.64 0.70 0.77 0.81 0.81 0.76 0.78 0.90 1.05 1.19 1.16 1.19 1.19 1.16 1.10 1.03 1.02 1.00 0.99 0.95 0.94 0.94 0.94 0.94 0.90 0.84
0.38 0.37 0.35 0.35 0.35 0.38 0.41 0.40 0.42 0.48 0.51 0.46 0.46 0.47 0.47 0.48 0.52 0.60 0.74 0.69 0.68 0.74 0.76 0.75 0.78 0.89 1.03 1.20 1.18 1.09 1.10 1.11 1.05 0.98 0.93 0.91 0.92 0.95 0.99 1.00 0.98 0.90 0.85
0.39 0.38 0.35 0.36 0.35 0.37 0.38 0.40 0.41 0.43 0.46 0.46 0.46 0.49 0.47 0.47 0.49 0.58 0.57 0.56 0.64 0.70 0.72 0.78 0.83 0.84 0.91 1.05 1.19 1.21 1.14 1.11 1.05 0.99 0.90 0.88 0.89 0.89 0.95 0.95 0.87 0.83 0.82
0.38 0.37 0.36 0.36 0.36 0.37 0.37 0.37 0.40 0.42 0.43 0.42 0.43 0.48 0.48 0.50 0.55 0.55 0.54 0.57 0.56 0.62 0.75 0.82 0.91 0.95 0.99 1.07 1.22 1.20 1.22 1.20 1.11 0.98 0.92 0.91 0.88 0.92 0.89 0.86 0.81 0.81 0.80
Wind_Speed
35 35 35 36 34 34 33 31 28 27 25 24 23 23 22 21 21 22 22 22 22 22 21 21 20 20 19 19 18 18 17 17 17 18 19 19 19 21 22 22 24 25 25
36 36 37 37 37 35 36 34 32 31 29 28 27 26 25 24 24 24 24 25 25 25 25 24 24 23 22 22 21 21 20 20 18 19 19 19 21 23 23 24 24 24 24
39 36 37 39 38 39 37 38 35 34 33 32 30 28 28 26 26 27 27 28 28 28 28 28 27 27 26 26 25 24 24 22 22 22 19 18 20 20 21 22 23 23 23
40 38 39 40 41 40 39 39 38 37 36 36 34 33 32 30 30 30 30 31 31 31 30 30 30 30 29 29 29 28 27 26 24 24 26 26 23 21 21 21 23 23 24
39 41 37 36 41 40 40 38 38 40 39 38 38 37 37 35 33 33 33 34 34 34 33 32 32 32 32 31 32 31 30 29 28 28 26 27 27 28 27 26 25 25 26
42 41 44 41 40 38 41 42 42 42 42 42 42 41 40 38 36 36 36 36 36 35 35 35 34 33 33 33 33 33 32 31 30 30 30 28 27 27 26 27 27 27 27
43 44 44 47 47 47 41 41 44 44 45 44 44 44 44 42 41 39 38 37 37 37 36 36 35 34 34 33 33 33 33 32 32 31 31 31 31 29 28 28 27 27 27
29 37 37 39 39 45 49 46 43 47 47 46 47 46 47 46 44 43 41 40 39 39 38 37 36 36 35 34 34 34 33 34 33 33 32 31 31 31 31 29 28 28 29
31 31 35 38 41 40 40 41 47 48 47 46 45 47 47 48 46 45 44 43 42 40 39 39 38 37 36 36 36 36 35 35 35 34 33 33 32 31 30 30 30 29 30
33 35 34 34 35 35 40 40 40 41 43 45 46 48 48 48 47 46 46 44 44 42 41 40 39 38 37 38 39 38 37 37 35 35 34 33 32 31 31 30 31 31 31
33 31 32 28 27 31 34 35 39 41 41 42 42 43 44 45 46 46 46 45 44 44 43 42 41 40 40 39 40 39 39 38 37 35 34 33 32 31 31 31 31 31 31
27 31 31 30 31 31 31 32 34 36 38 40 40 41 41 42 44 45 45 45 45 45 45 44 43 43 41 41 41 40 39 38 38 36 35 33 32 32 31 31 31 31 31
24 28 33 34 34 36 33 30 30 32 34 34 36 38 40 41 43 44 45 46 47 47 46 46 46 45 44 42 41 41 40 39 38 37 35 34 33 32 31 30 30 30 30
31 33 33 34 36 33 34 36 37 38 36 35 36 36 36 39 41 43 45 46 48 48 48 48 48 47 46 44 42 42 41 40 38 37 36 35 33 32 31 30 30 29 29
36 37 38 38 37 39 40 38 37 39 40 40 40 39 39 39 39 41 44 46 48 49 49 49 49 49 48 47 44 43 42 40 39 37 36 35 34 32 31 30 29 28 27
39 39 41 40 40 40 40 42 43 43 42 43 42 41 42 42 42 42 43 45 47 48 48 49 50 50 49 49 46 45 44 41 39 37 35 34 33 31 30 29 29 28 28
34 37 36 37 39 37 38 43 44 44 43 43 43 44 44 44 44 43 43 44 46 48 48 49 49 50 50 49 46 46 44 42 40 38 36 34 33 31 30 28 28 27 28
29 31 32 34 38 40 42 41 43 44 45 45 46 46 46 45 44 42 43 44 44 45 46 46 46 46 45 45 45 45 44 42 40 38 36 35 33 32 30 29 27 27 28
26 31 33 35 37 39 42 42 42 43 44 46 46 47 45 46 45 44 43 42 41 43 44 45 46 43 44 44 44 44 43 41 40 39 37 36 34 32 31 30 29 29 29
35 35 33 37 40 41 41 42 43 44 44 44 45 46 46 46 46 46 45 43 41 40 41 43 45 47 45 44 45 45 43 42 41 39 38 37 35 34 32 32 31 30 31
37 39 40 40 41 42 42 44 45 45 45 45 45 45 45 46 47 46 46 45 43 41 40 41 42 44 46 47 47 46 45 44 42 41 39 38 36 35 34 33 33 32 31
38 39 41 42 44 44 43 44 45 47 46 45 45 44 44 44 45 46 46 46 45 43 40 39 41 42 44 45 47 47 46 45 43 42 40 39 37 35 34 33 32 33 31
41 41 43 46 46 46 46 46 46 45 44 45 45 44 43 43 42 44 45 45 45 45 44 42 41 42 44 45 47 47 47 47 45 44 42 40 38 36 35 34 34 33 31
41 42 45 46 48 48 48 47 47 45 43 45 45 45 44 42 41 41 41 43 45 46 46 45 44 42 44 46 46 46 46 46 45 45 43 42 40 38 38 38 36 37 34
44 45 47 47 49 49 50 51 49 48 45 42 42 42 43 43 42 39 40 42 44 45 46 46 47 45 45 47 47 47 46 46 45 45 43 43 42 41 42 40 37 36 35
46 48 50 50 50 49 51 53 53 50 48 46 43 40 39 39 39 38 39 37 40 43 45 46 47 47 47 48 48 48 46 45 45 47 47 45 47 44 38 36 36 37 37
Wind_Direction
232 229 228 226 226 227 225 226 227 229 229 230 233 235 236 237 238 239 239 238 239 238 239 242 244 245 247 250 253 256 260 265 269 274 280 282 284 283 285 287 287 287 287
232 230 228 227 227 228 229 228 230 231 233 235 238 239 240 241 243 243 244 243 243 242 243 244 246 247 250 252 254 255 260 264 268 273 281 286 287 284 285 287 287 288 289
233 232 230 229 229 230 232 232 231 234 235 237 239 241 242 244 244 246 247 247 246 246 246 247 249 249 251 253 254 256 257 264 267 268 276 286 288 293 290 286 287 287 289
232 234 232 231 230 231 232 233 234 235 236 237 240 242 244 246 248 250 251 250 249 248 249 250 250 252 253 254 255 257 259 261 267 269 270 275 285 292 297 296 288 288 288
236 234 236 232 231 231 232 233 236 237 237 239 242 244 246 250 252 252 252 251 250 249 250 251 252 253 254 255 255 257 257 261 264 269 273 275 278 281 286 291 292 289 289
240 238 236 235 233 232 234 238 240 240 240 240 242 245 247 249 251 253 254 252 250 250 250 251 252 254 254 255 256 256 257 259 263 267 270 275 277 279 282 286 288 290 291
237 239 237 236 238 239 241 241 241 241 242 244 244 244 248 250 251 253 253 251 250 249 250 251 252 253 254 256 256 256 257 259 262 266 269 272 274 278 279 282 286 289 291
237 235 233 236 238 239 241 245 246 245 243 244 247 248 248 249 251 252 252 252 250 250 251 251 252 253 254 255 255 256 257 259 263 264 268 271 273 274 276 280 283 288 289
242 240 239 241 244 244 245 246 246 245 244 245 247 249 250 249 250 251 250 250 250 250 250 250 251 253 254 255 255 256 258 260 262 265 266 269 271 273 275 277 280 284 289
245 244 246 248 243 245 244 245 244 243 245 248 249 250 251 251 249 249 249 249 249 249 249 250 251 253 255 256 255 256 257 259 262 263 265 267 269 272 274 276 279 281 285
244 245 245 247 241 243 244 245 244 245 248 250 251 250 248 249 249 247 248 249 248 247 250 250 251 252 255 258 255 255 256 257 259 261 263 265 267 271 273 276 278 280 283
240 242 242 241 244 248 249 247 249 247 246 246 248 250 250 249 249 248 248 248 248 248 250 250 250 252 255 258 255 253 254 255 257 258 260 263 266 269 272 275 277 280 282
246 247 246 245 248 249 250 250 248 251 249 249 250 251 250 250 250 250 249 248 249 249 250 250 252 253 254 256 255 251 253 255 256 257 259 261 264 267 271 274 277 280 282
253 253 252 249 248 249 251 251 251 253 255 253 252 253 254 254 252 252 251 250 250 250 250 251 252 253 253 254 253 249 251 253 254 256 257 259 262 265 268 273 276 278 281
257 255 254 252 252 252 254 254 256 256 256 256 255 254 256 256 256 255 253 252 252 251 251 251 251 252 251 252 251 248 249 250 252 254 256 258 261 263 266 270 273 277 280
259 259 258 259 258 256 255 257 256 256 257 256 257 257 258 258 259 259 257 255 253 252 252 251 250 250 251 251 248 246 247 248 249 251 253 256 258 261 264 268 272 274 280
263 262 257 258 258 259 258 257 257 257 257 257 259 260 260 259 259 260 260 259 255 253 252 251 251 251 250 247 245 243 245 245 247 248 250 253 256 258 262 267 272 275 282
270 265 262 262 260 259 260 262 260 258 258 259 260 261 261 260 259 260 261 261 259 256 253 251 251 249 248 243 240 240 241 244 245 246 248 250 253 256 259 264 268 273 284
274 268 263 263 263 264 263 263 263 261 260 260 260 260 261 259 258 258 259 261 260 257 254 251 249 247 245 241 239 239 240 241 243 244 247 249 251 255 258 261 265 274 283
268 270 273 266 265 265 265 264 262 262 263 263 263 261 259 260 258 257 257 257 259 258 254 250 249 247 244 241 239 237 238 240 242 244 246 248 251 253 256 260 267 273 278
271 271 271 271 271 272 271 268 264 263 264 264 263 261 259 258 258 258 255 255 255 255 254 251 248 246 244 241 239 238 238 240 241 243 245 248 249 253 257 262 267 273 276
275 274 273 271 272 271 270 269 267 263 263 262 262 261 260 260 258 257 255 253 253 252 252 251 248 245 243 240 237 237 238 239 240 242 244 246 248 252 257 264 267 272 274
276 276 276 275 272 271 268 267 266 266 263 260 259 258 259 260 260 257 255 253 251 250 250 250 248 246 243 240 238 238 238 239 240 241 241 243 247 250 257 263 267 265 271
279 279 279 277 273 269 267 264 263 264 265 260 259 257 257 257 258 258 255 254 251 250 249 248 247 246 243 240 239 238 238 238 239 237 239 243 246 252 259 264 264 268 271
282 281 280 278 275 272 267 263 261 261 261 262 259 257 254 255 256 257 257 255 253 251 249 247 246 245 244 241 238 237 237 237 238 234 238 241 247 254 261 263 264 267 272
285 283 280 278 275 273 268 263 260 259 257 258 257 257 254 252 253 254 257 258 258 253 249 247 245 245 245 239 236 236 235 235 234 239 241 246 255 256 257 258 261 267 271